Time,TemperatureF,DewpointF,PressureIn,WindDirection,WindDirectionDegrees,WindSpeedMPH,WindSpeedGustMPH,Humidity,HourlyPrecipIn,Conditions,Clouds,dailyrainin,SoftwareType,DateUTC
2013-06-01 00:01:00,40.0,31.0,-100.00,West,275,27.0,38.0,70,0.00,,,-99.99,,2013-06-01 06:01:00,
2013-06-01 00:12:00,40.0,31.0,-100.00,West,275,29.0,37.0,69,0.00,,,-99.99,,2013-06-01 06:12:00,
2013-06-01 00:22:00,40.0,31.0,-100.00,West,277,30.0,37.0,70,0.00,,,-99.99,,2013-06-01 06:22:00,
2013-06-01 00:32:00,40.0,31.0,-100.00,West,278,30.0,40.0,71,0.00,,,-99.99,,2013-06-01 06:32:00,
2013-06-01 00:42:00,39.0,31.0,-100.00,West,275,30.0,40.0,72,0.00,,,-99.99,,2013-06-01 06:42:00,
2013-06-01 00:52:00,39.0,31.0,-100.00,West,274,30.0,39.0,73,0.00,,,-99.99,,2013-06-01 06:52:00,
2013-06-01 01:01:00,39.0,31.0,-100.00,West,275,29.0,36.0,75,0.00,,,-99.99,,2013-06-01 07:01:00,
2013-06-01 01:11:00,39.0,32.0,-100.00,West,271,29.0,40.0,75,0.00,,,-99.99,,2013-06-01 07:11:00,
2013-06-01 01:21:00,39.0,32.0,-100.00,West,274,29.0,37.0,75,0.00,,,-99.99,,2013-06-01 07:21:00,
2013-06-01 01:31:00,39.0,32.0,-100.00,West,278,31.0,42.0,76,0.00,,,-99.99,,2013-06-01 07:31:00,
2013-06-01 01:42:00,38.0,32.0,-100.00,West,275,29.0,39.0,77,0.00,,,-99.99,,2013-06-01 07:42:00,
2013-06-01 01:52:00,38.0,32.0,-100.00,West,275,29.0,37.0,78,0.00,,,-99.99,,2013-06-01 07:52:00,
2013-06-01 02:02:00,38.0,32.0,-100.00,West,278,29.0,37.0,79,0.00,,,-99.99,,2013-06-01 08:02:00,
2013-06-01 02:11:00,38.0,32.0,-100.00,West,277,30.0,37.0,79,0.00,,,-99.99,,2013-06-01 08:11:00,
2013-06-01 02:21:00,38.0,32.0,-100.00,West,277,29.0,37.0,80,0.00,,,-99.99,,2013-06-01 08:21:00,
2013-06-01 02:32:00,38.0,32.0,-100.00,West,274,30.0,39.0,81,0.00,,,-99.99,,2013-06-01 08:32:00,
2013-06-01 02:42:00,38.0,32.0,-100.00,West,274,30.0,39.0,80,0.00,,,-99.99,,2013-06-01 08:42:00,
2013-06-01 02:52:00,38.0,32.0,-100.00,West,271,32.0,39.0,79,0.00,,,-99.99,,2013-06-01 08:52:00,
2013-06-01 03:01:00,38.0,32.0,-100.00,West,271,30.0,39.0,80,0.00,,,-99.99,,2013-06-01 09:01:00,
2013-06-01 03:12:00,38.0,32.0,-100.00,West,270,30.0,39.0,80,0.00,,,-99.99,,2013-06-01 09:12:00,
2013-06-01 03:21:00,38.0,32.0,-100.00,West,268,33.0,44.0,79,0.00,,,-99.99,,2013-06-01 09:21:00,
2013-06-01 03:33:00,38.0,32.0,-100.00,West,270,32.0,40.0,80,0.00,,,-99.99,,2013-06-01 09:33:00,
2013-06-01 03:42:00,38.0,32.0,-100.00,West,271,30.0,39.0,80,0.00,,,-99.99,,2013-06-01 09:42:00,
2013-06-01 03:53:00,37.0,32.0,-100.00,West,268,30.0,39.0,81,0.00,,,-99.99,,2013-06-01 09:53:00,
2013-06-01 04:02:00,38.0,32.0,-100.00,West,265,30.0,37.0,80,0.00,,,-99.99,,2013-06-01 10:02:00,
2013-06-01 04:12:00,38.0,32.0,-100.00,West,267,32.0,39.0,79,0.00,,,-99.99,,2013-06-01 10:12:00,
2013-06-01 04:22:00,38.0,32.0,-100.00,West,265,30.0,39.0,78,0.00,,,-99.99,,2013-06-01 10:22:00,
2013-06-01 04:33:00,38.0,32.0,-100.00,West,267,29.0,37.0,78,0.00,,,-99.99,,2013-06-01 10:33:00,
2013-06-01 04:42:00,38.0,32.0,-100.00,West,274,28.0,36.0,78,0.00,,,-99.99,,2013-06-01 10:42:00,
2013-06-01 04:52:00,38.0,32.0,-100.00,West,277,29.0,37.0,79,0.00,,,-99.99,,2013-06-01 10:52:00,
2013-06-01 05:02:00,38.0,32.0,-100.00,West,277,24.0,32.0,79,0.00,,,-99.99,,2013-06-01 11:02:00,
2013-06-01 05:11:00,38.0,32.0,-100.00,West,272,26.0,34.0,79,0.00,,,-99.99,,2013-06-01 11:11:00,
2013-06-01 05:21:00,38.0,32.0,-100.00,West,272,21.0,27.0,79,0.00,,,-99.99,,2013-06-01 11:21:00,
2013-06-01 05:32:00,38.0,32.0,-100.00,West,274,19.0,24.0,78,0.00,,,-99.99,,2013-06-01 11:32:00,
2013-06-01 05:42:00,38.0,32.0,-100.00,West,277,19.0,24.0,79,0.00,,,-99.99,,2013-06-01 11:42:00,
2013-06-01 05:52:00,38.0,32.0,-100.00,West,280,24.0,30.0,80,0.00,,,-99.99,,2013-06-01 11:52:00,
2013-06-01 06:01:00,37.0,32.0,-100.00,West,277,23.0,31.0,82,0.00,,,-99.99,,2013-06-01 12:01:00,
2013-06-01 06:12:00,37.0,33.0,-100.00,West,274,21.0,30.0,82,0.00,,,-99.99,,2013-06-01 12:12:00,
2013-06-01 06:21:00,37.0,32.0,-100.00,West,275,23.0,30.0,81,0.00,,,-99.99,,2013-06-01 12:21:00,
2013-06-01 06:32:00,37.0,33.0,-100.00,West,272,22.0,29.0,83,0.00,,,-99.99,,2013-06-01 12:32:00,
2013-06-01 06:41:00,38.0,33.0,-100.00,West,271,18.0,25.0,82,0.00,,,-99.99,,2013-06-01 12:41:00,
2013-06-01 06:52:00,38.0,33.0,-100.00,West,277,17.0,21.0,83,0.00,,,-99.99,,2013-06-01 12:52:00,
2013-06-01 07:01:00,38.0,32.0,-100.00,West,277,16.0,22.0,79,0.00,,,-99.99,,2013-06-01 13:01:00,
2013-06-01 07:11:00,38.0,32.0,-100.00,West,278,21.0,26.0,78,0.00,,,-99.99,,2013-06-01 13:11:00,
2013-06-01 07:22:00,38.0,32.0,-100.00,West,280,19.0,27.0,78,0.00,,,-99.99,,2013-06-01 13:22:00,
2013-06-01 07:32:00,38.0,32.0,-100.00,West,277,18.0,23.0,78,0.00,,,-99.99,,2013-06-01 13:32:00,
2013-06-01 07:42:00,39.0,32.0,-100.00,West,274,19.0,23.0,77,0.00,,,-99.99,,2013-06-01 13:42:00,
2013-06-01 07:52:00,39.0,32.0,-100.00,West,271,18.0,24.0,78,0.00,,,-99.99,,2013-06-01 13:52:00,
2013-06-01 08:02:00,39.0,32.0,-100.00,West,270,17.0,21.0,76,0.00,,,-99.99,,2013-06-01 14:02:00,
2013-06-01 08:11:00,41.0,33.0,-100.00,West,271,17.0,22.0,71,0.00,,,-99.99,,2013-06-01 14:11:00,
2013-06-01 08:21:00,42.0,33.0,-100.00,West,268,18.0,23.0,69,0.00,,,-99.99,,2013-06-01 14:21:00,
2013-06-01 08:32:00,42.0,32.0,-100.00,West,271,17.0,22.0,67,0.00,,,-99.99,,2013-06-01 14:32:00,
2013-06-01 08:42:00,41.0,32.0,-100.00,West,278,19.0,27.0,72,0.00,,,-99.99,,2013-06-01 14:42:00,
2013-06-01 08:52:00,40.0,32.0,-100.00,WNW,289,20.0,25.0,73,0.00,,,-99.99,,2013-06-01 14:52:00,
2013-06-01 09:02:00,40.0,33.0,-100.00,WNW,287,19.0,22.0,74,0.00,,,-99.99,,2013-06-01 15:02:00,
2013-06-01 09:11:00,40.0,33.0,-100.00,WNW,289,17.0,23.0,76,0.00,,,-99.99,,2013-06-01 15:11:00,
2013-06-01 09:21:00,40.0,33.0,-100.00,WNW,291,17.0,22.0,76,0.00,,,-99.99,,2013-06-01 15:21:00,
2013-06-01 09:33:00,40.0,33.0,-100.00,WNW,294,17.0,22.0,76,0.00,,,-99.99,,2013-06-01 15:33:00,
2013-06-01 09:43:00,41.0,34.0,-100.00,WNW,291,16.0,21.0,75,0.00,,,-99.99,,2013-06-01 15:43:00,
2013-06-01 09:53:00,41.0,33.0,-100.00,WNW,284,17.0,22.0,73,0.00,,,-99.99,,2013-06-01 15:53:00,
2013-06-01 10:03:00,41.0,34.0,-100.00,West,281,19.0,23.0,74,0.00,,,-99.99,,2013-06-01 16:03:00,
2013-06-01 10:12:00,42.0,34.0,-100.00,WNW,285,18.0,23.0,73,0.00,,,-99.99,,2013-06-01 16:12:00,
2013-06-01 10:23:00,44.0,34.0,-100.00,WNW,284,19.0,24.0,69,0.00,,,-99.99,,2013-06-01 16:23:00,
2013-06-01 10:33:00,43.0,33.0,-100.00,WNW,284,19.0,23.0,69,0.00,,,-99.99,,2013-06-01 16:33:00,
2013-06-01 10:42:00,44.0,33.0,-100.00,WNW,289,19.0,24.0,66,0.00,,,-99.99,,2013-06-01 16:42:00,
2013-06-01 10:52:00,44.0,33.0,-100.00,WNW,288,18.0,24.0,66,0.00,,,-99.99,,2013-06-01 16:52:00,
2013-06-01 11:02:00,45.0,33.0,-100.00,WNW,291,19.0,25.0,64,0.00,,,-99.99,,2013-06-01 17:02:00,
2013-06-01 11:11:00,44.0,33.0,-100.00,WNW,296,17.0,22.0,65,0.00,,,-99.99,,2013-06-01 17:11:00,
2013-06-01 11:22:00,45.0,33.0,-100.00,WNW,299,16.0,22.0,63,0.00,,,-99.99,,2013-06-01 17:22:00,
2013-06-01 11:32:00,46.0,34.0,-100.00,WNW,299,16.0,21.0,62,0.00,,,-99.99,,2013-06-01 17:32:00,
2013-06-01 11:42:00,47.0,34.0,-100.00,WNW,302,17.0,22.0,60,0.00,,,-99.99,,2013-06-01 17:42:00,
2013-06-01 11:52:00,48.0,34.0,-100.00,WNW,294,16.0,23.0,60,0.00,,,-99.99,,2013-06-01 17:52:00,
2013-06-01 12:01:00,48.0,34.0,-100.00,WNW,295,17.0,24.0,58,0.00,,,-99.99,,2013-06-01 18:01:00,
2013-06-01 12:12:00,49.0,34.0,-100.00,WNW,298,17.0,22.0,56,0.00,,,-99.99,,2013-06-01 18:12:00,
2013-06-01 12:21:00,50.0,33.0,-100.00,WNW,287,17.0,24.0,54,0.00,,,-99.99,,2013-06-01 18:21:00,
2013-06-01 12:32:00,49.0,33.0,-100.00,WNW,291,19.0,26.0,54,0.00,,,-99.99,,2013-06-01 18:32:00,
2013-06-01 12:41:00,51.0,34.0,-100.00,WNW,296,21.0,27.0,52,0.00,,,-99.99,,2013-06-01 18:41:00,
2013-06-01 12:51:00,50.0,34.0,-100.00,WNW,292,17.0,27.0,53,0.00,,,-99.99,,2013-06-01 18:51:00,
2013-06-01 13:02:00,51.0,33.0,-100.00,WNW,295,18.0,26.0,51,0.00,,,-99.99,,2013-06-01 19:02:00,
2013-06-01 13:11:00,51.0,33.0,-100.00,WNW,298,17.0,24.0,51,0.00,,,-99.99,,2013-06-01 19:11:00,
2013-06-01 13:21:00,53.0,34.0,-100.00,WNW,296,19.0,26.0,48,0.00,,,-99.99,,2013-06-01 19:21:00,
2013-06-01 13:32:00,52.0,33.0,-100.00,WNW,299,17.0,26.0,48,0.00,,,-99.99,,2013-06-01 19:32:00,
2013-06-01 13:41:00,53.0,33.0,-100.00,WNW,291,17.0,26.0,47,0.00,,,-99.99,,2013-06-01 19:41:00,
2013-06-01 13:52:00,53.0,33.0,-100.00,WNW,298,17.0,24.0,48,0.00,,,-99.99,,2013-06-01 19:52:00,
2013-06-01 14:01:00,53.0,33.0,-100.00,WNW,299,16.0,24.0,47,0.00,,,-99.99,,2013-06-01 20:01:00,
2013-06-01 14:12:00,54.0,33.0,-100.00,WNW,288,14.0,24.0,45,0.00,,,-99.99,,2013-06-01 20:12:00,
2013-06-01 14:21:00,53.0,33.0,-100.00,WNW,302,17.0,24.0,45,0.00,,,-99.99,,2013-06-01 20:21:00,
2013-06-01 14:32:00,55.0,32.0,-100.00,WNW,292,16.0,24.0,42,0.00,,,-99.99,,2013-06-01 20:32:00,
2013-06-01 14:41:00,55.0,33.0,-100.00,WNW,291,17.0,26.0,43,0.00,,,-99.99,,2013-06-01 20:41:00,
2013-06-01 14:52:00,54.0,33.0,-100.00,WNW,296,17.0,23.0,44,0.00,,,-99.99,,2013-06-01 20:52:00,
2013-06-01 15:01:00,55.0,33.0,-100.00,WNW,285,16.0,23.0,42,0.00,,,-99.99,,2013-06-01 21:01:00,
2013-06-01 15:11:00,55.0,32.0,-100.00,WNW,284,16.0,22.0,42,0.00,,,-99.99,,2013-06-01 21:11:00,
2013-06-01 15:21:00,55.0,31.0,-100.00,WNW,289,18.0,25.0,40,0.00,,,-99.99,,2013-06-01 21:21:00,
2013-06-01 15:33:00,56.0,32.0,-100.00,WNW,284,18.0,23.0,40,0.00,,,-99.99,,2013-06-01 21:33:00,
2013-06-01 15:42:00,56.0,33.0,-100.00,West,275,17.0,24.0,41,0.00,,,-99.99,,2013-06-01 21:42:00,
2013-06-01 15:53:00,55.0,33.0,-100.00,WNW,284,17.0,22.0,43,0.00,,,-99.99,,2013-06-01 21:53:00,
2013-06-01 16:03:00,55.0,30.0,-100.00,WSW,258,12.0,20.0,39,0.00,,,-99.99,,2013-06-01 22:03:00,
2013-06-01 16:12:00,55.0,30.0,-100.00,West,264,12.0,18.0,39,0.00,,,-99.99,,2013-06-01 22:12:00,
2013-06-01 16:23:00,57.0,31.0,-100.00,West,270,15.0,21.0,37,0.00,,,-99.99,,2013-06-01 22:23:00,
2013-06-01 16:33:00,56.0,31.0,-100.00,West,264,14.0,20.0,37,0.00,,,-99.99,,2013-06-01 22:33:00,
2013-06-01 16:42:00,58.0,31.0,-100.00,West,270,13.0,17.0,35,0.00,,,-99.99,,2013-06-01 22:42:00,
2013-06-01 16:53:00,57.0,33.0,-100.00,West,281,16.0,21.0,40,0.00,,,-99.99,,2013-06-01 22:53:00,
2013-06-01 17:02:00,57.0,31.0,-100.00,West,272,17.0,22.0,37,0.00,,,-99.99,,2013-06-01 23:02:00,
2013-06-01 17:11:00,55.0,31.0,-100.00,West,275,15.0,18.0,40,0.00,,,-99.99,,2013-06-01 23:11:00,
2013-06-01 17:21:00,55.0,31.0,-100.00,WNW,287,13.0,17.0,39,0.00,,,-99.99,,2013-06-01 23:21:00,
2013-06-01 17:32:00,56.0,31.0,-100.00,WNW,294,9.0,15.0,39,0.00,,,-99.99,,2013-06-01 23:32:00,
2013-06-01 17:42:00,56.0,32.0,-100.00,West,271,12.0,17.0,40,0.00,,,-99.99,,2013-06-01 23:42:00,
2013-06-01 17:52:00,55.0,32.0,-100.00,WNW,287,12.0,16.0,41,0.00,,,-99.99,,2013-06-01 23:52:00,
2013-06-01 18:02:00,55.0,32.0,-100.00,WNW,289,12.0,17.0,40,0.00,,,-99.99,,2013-06-02 00:02:00,
2013-06-01 18:11:00,56.0,31.0,-100.00,WNW,296,11.0,15.0,39,0.00,,,-99.99,,2013-06-02 00:11:00,
2013-06-01 18:21:00,55.0,32.0,-100.00,WNW,295,12.0,16.0,41,0.00,,,-99.99,,2013-06-02 00:21:00,
2013-06-01 18:32:00,56.0,32.0,-100.00,WNW,291,11.0,14.0,40,0.00,,,-99.99,,2013-06-02 00:32:00,
2013-06-01 18:41:00,57.0,31.0,-100.00,WNW,288,11.0,15.0,37,0.00,,,-99.99,,2013-06-02 00:41:00,
2013-06-01 18:51:00,56.0,31.0,-100.00,West,265,11.0,15.0,38,0.00,,,-99.99,,2013-06-02 00:51:00,
2013-06-01 19:01:00,56.0,31.0,-100.00,West,263,11.0,15.0,39,0.00,,,-99.99,,2013-06-02 01:01:00,
2013-06-01 19:11:00,56.0,32.0,-100.00,West,274,11.0,13.0,39,0.00,,,-99.99,,2013-06-02 01:11:00,
2013-06-01 19:21:00,55.0,31.0,-100.00,WNW,292,10.0,13.0,39,0.00,,,-99.99,,2013-06-02 01:21:00,
2013-06-01 19:32:00,55.0,32.0,-100.00,WNW,289,10.0,14.0,41,0.00,,,-99.99,,2013-06-02 01:32:00,
2013-06-01 19:41:00,55.0,32.0,-100.00,WNW,282,7.0,11.0,41,0.00,,,-99.99,,2013-06-02 01:41:00,
2013-06-01 19:52:00,55.0,33.0,-100.00,West,280,6.0,9.0,43,0.00,,,-99.99,,2013-06-02 01:52:00,
2013-06-01 20:01:00,54.0,33.0,-100.00,West,278,6.0,8.0,44,0.00,,,-99.99,,2013-06-02 02:01:00,
2013-06-01 20:12:00,54.0,34.0,-100.00,WNW,285,6.0,7.0,47,0.00,,,-99.99,,2013-06-02 02:12:00,
2013-06-01 20:21:00,53.0,34.0,-100.00,West,280,5.0,7.0,49,0.00,,,-99.99,,2013-06-02 02:21:00,
2013-06-01 20:32:00,52.0,34.0,-100.00,West,275,4.0,6.0,51,0.00,,,-99.99,,2013-06-02 02:32:00,
2013-06-01 20:41:00,52.0,34.0,-100.00,WSW,246,2.0,6.0,50,0.00,,,-99.99,,2013-06-02 02:41:00,
2013-06-01 20:51:00,52.0,34.0,-100.00,SW,219,2.0,4.0,50,0.00,,,-99.99,,2013-06-02 02:51:00,
2013-06-01 21:02:00,51.0,33.0,-100.00,ENE,75,1.0,4.0,50,0.00,,,-99.99,,2013-06-02 03:02:00,
2013-06-01 21:11:00,49.0,33.0,-100.00,SW,220,2.0,6.0,53,0.00,,,-99.99,,2013-06-02 03:11:00,
2013-06-01 21:21:00,49.0,33.0,-100.00,SW,217,1.0,4.0,54,0.00,,,-99.99,,2013-06-02 03:21:00,
2013-06-01 21:33:00,50.0,32.0,-100.00,South,169,2.0,4.0,49,0.00,,,-99.99,,2013-06-02 03:33:00,
2013-06-01 21:43:00,49.0,32.0,-100.00,SSE,165,3.0,6.0,50,0.00,,,-99.99,,2013-06-02 03:43:00,
2013-06-01 21:52:00,48.0,32.0,-100.00,NW,323,1.0,3.0,52,0.00,,,-99.99,,2013-06-02 03:52:00,
2013-06-01 22:02:00,47.0,31.0,-100.00,North,7,1.0,4.0,54,0.00,,,-99.99,,2013-06-02 04:02:00,
2013-06-01 22:13:00,47.0,31.0,-100.00,ENE,73,1.0,3.0,53,0.00,,,-99.99,,2013-06-02 04:13:00,
2013-06-01 22:23:00,47.0,32.0,-100.00,East,99,2.0,6.0,55,0.00,,,-99.99,,2013-06-02 04:23:00,
2013-06-01 22:33:00,46.0,32.0,-100.00,ENE,58,6.0,11.0,57,0.00,,,-99.99,,2013-06-02 04:33:00,
2013-06-01 22:42:00,45.0,33.0,-100.00,ESE,106,6.0,9.0,61,0.00,,,-99.99,,2013-06-02 04:42:00,
2013-06-01 22:52:00,45.0,33.0,-100.00,ESE,114,6.0,9.0,63,0.00,,,-99.99,,2013-06-02 04:52:00,
2013-06-01 23:02:00,45.0,33.0,-100.00,ESE,112,6.0,8.0,64,0.00,,,-99.99,,2013-06-02 05:02:00,
2013-06-01 23:12:00,43.0,33.0,-100.00,ESE,119,7.0,10.0,66,0.00,,,-99.99,,2013-06-02 05:12:00,
2013-06-01 23:22:00,43.0,33.0,-100.00,SE,124,7.0,9.0,66,0.00,,,-99.99,,2013-06-02 05:22:00,
2013-06-01 23:32:00,44.0,33.0,-100.00,SE,133,9.0,12.0,66,0.00,,,-99.99,,2013-06-02 05:32:00,
2013-06-01 23:42:00,44.0,33.0,-100.00,SE,137,10.0,12.0,64,0.00,,,-99.99,,2013-06-02 05:42:00,
2013-06-01 23:52:00,43.0,33.0,-100.00,SE,131,9.0,11.0,67,0.00,,,-99.99,,2013-06-02 05:52:00,